Weather History for KTOL - September, 2013

Change the Weather History Date:

Tuesday, September 17, 2013

  Actual Average Record
Temperature  
Mean Temperature 55 °F 64 °F  
Max Temperature 68 °F 75 °F 96 °F (1955)
Min Temperature 42 °F 52 °F 34 °F (1959)
Degree Days  
Heating Degree Days 10 4  
Month to date heating degree days 53 34  
Since 1 July heating degree days 82 48  
Cooling Degree Days 0 2  
Month to date cooling degree days 73 63  
Year to date cooling degree days 755 765  
Growing Degree Days 5 (Base 50)    
Moisture  
Dew Point 45 °F    
Average Humidity 74    
Maximum Humidity 100    
Minimum Humidity 48    
Precipitation  
Precipitation 0.00 in 0.09 in 3.33 in (1972)
Month to date precipitation 1.24 1.60  
Year to date precipitation 28.03 24.92  
Snow  
Snow 0.00 in 0.00 in - ()
Month to date snowfall 0.0 0.0  
Since 1 July snowfall 0.0 0.0  
Since 1 September snowfall 0.0 0.0  
Snow Depth 0.00 in    
Sea Level Pressure  
Sea Level Pressure 30.33 in    
Wind  
Wind Speed 4 mph (ENE)    
Max Wind Speed 13 mph    
Max Gust Speed 17 mph    
Visibility 10 miles    
Events      
T = Trace of Precipitation, MM = Missing Value Source: NWS Daily Summary

Daily Weather History Graph

Daily Weather History Graph

Search for Another Location

Airport or City:

Trip Planner

Search our weather history database for the weather conditions in past years. The results will help you decide how hot, cold, wet, or windy it might be!

Date:

Astronomy

Sep. 17, 2013 Rise Set
Actual Time 7:17 AM EDT 7:40 PM EDT
Civil Twilight 6:49 AM EDT 8:08 PM EDT
Nautical Twilight 6:17 AM EDT 8:41 PM EDT
Astronomical Twilight 5:43 AM EDT 9:14 PM EDT
Moon 6:27 PM EDT (9/17) 5:10 AM EDT (9/17)
Length of Visible Light 13h 18m
Length of Day
12h 22m
Waxing Gibbous, 96% of the Moon is Illuminated
Sep 17
Waxing Gibbous
Sep 19
Full
Sep 26
Last Quarter
Oct 4
New
Oct 11
First Quarter

Hourly Weather History & Observations

Time (EDT) Temp. Windchill Dew Point Humidity Pressure Visibility Wind Dir Wind Speed Gust Speed Precip Events Conditions
12:52 AM 48.0 °F - 45.0 °F 89% 30.37 in 10.0 mi NE 4.6 mph - N/A   Clear
1:52 AM 46.9 °F - 43.0 °F 86% 30.38 in 10.0 mi NE 5.8 mph - N/A   Clear
2:52 AM 43.0 °F - 42.1 °F 97% 30.38 in 10.0 mi Calm Calm - N/A   Clear
3:52 AM 45.0 °F 43.5 °F 42.1 °F 90% 30.38 in 10.0 mi North 3.5 mph - N/A   Clear
4:52 AM 44.1 °F - 41.0 °F 89% 30.39 in 10.0 mi Calm Calm - N/A   Clear
5:52 AM 43.0 °F 41.3 °F 39.9 °F 89% 30.38 in 10.0 mi North 3.5 mph - N/A   Clear
6:52 AM 42.1 °F - 39.9 °F 92% 30.39 in 10.0 mi Calm Calm - N/A   Clear
7:52 AM 43.0 °F - 39.9 °F 89% 30.40 in 10.0 mi Calm Calm - N/A   Clear
8:52 AM 48.0 °F - 44.1 °F 86% 30.40 in 10.0 mi Calm Calm - N/A   Clear
9:14 AM 50.0 °F - 44.6 °F 82% 30.39 in 10.0 mi Calm Calm - N/A   Mostly Cloudy
9:52 AM 53.1 °F - 46.9 °F 80% 30.40 in 10.0 mi Calm Calm - N/A   Mostly Cloudy
10:23 AM 57.2 °F - 48.2 °F 72% 30.39 in 10.0 mi Variable 3.5 mph - N/A   Scattered Clouds
10:52 AM 59.0 °F - 48.9 °F 69% 30.39 in 10.0 mi East 4.6 mph - N/A   Clear
11:40 AM 60.8 °F - 48.2 °F 63% 30.38 in 10.0 mi ESE 6.9 mph - N/A   Mostly Cloudy
11:52 AM 62.1 °F - 48.0 °F 60% 30.38 in 10.0 mi ENE 8.1 mph - N/A   Mostly Cloudy
12:01 PM 62.6 °F - 48.2 °F 59% 30.38 in 10.0 mi Variable 6.9 mph - N/A   Scattered Clouds
12:52 PM 63.0 °F - 46.0 °F 54% 30.36 in 10.0 mi ESE 6.9 mph - N/A   Clear
1:52 PM 66.0 °F - 46.9 °F 50% 30.34 in 10.0 mi ENE 5.8 mph - N/A   Clear
2:52 PM 66.0 °F - 48.9 °F 54% 30.32 in 10.0 mi East 8.1 mph - N/A   Clear
3:52 PM 66.9 °F - 48.0 °F 51% 30.29 in 10.0 mi ENE 9.2 mph 17.3 mph N/A   Clear
4:52 PM 66.0 °F - 48.0 °F 52% 30.27 in 10.0 mi ENE 11.5 mph - N/A   Clear
4:59 PM 66.2 °F - 46.4 °F 49% 30.27 in 10.0 mi ENE 11.5 mph - N/A   Partly Cloudy
5:52 PM 64.9 °F - 45.0 °F 48% 30.27 in 10.0 mi NE 11.5 mph - N/A   Clear
6:52 PM 62.1 °F - 44.1 °F 52% 30.26 in 10.0 mi ENE 9.2 mph - N/A   Clear
7:52 PM 57.0 °F - 45.0 °F 64% 30.25 in 10.0 mi East 6.9 mph - N/A   Clear
8:52 PM 54.0 °F - 46.0 °F 75% 30.24 in 10.0 mi ENE 3.5 mph - N/A   Clear
9:52 PM 53.1 °F - 46.9 °F 80% 30.23 in 10.0 mi Calm Calm - N/A   Clear
10:52 PM 51.1 °F - 46.9 °F 86% 30.23 in 10.0 mi Calm Calm - N/A   Clear
11:52 PM 51.1 °F - 48.0 °F 89% 30.22 in 10.0 mi Calm Calm - N/A   Clear